PIAST-M

导读

PIAST-M卫星是波兰PIAST项目中三颗PIAST星座卫星之一,于2025年11月28日随SpaceX公司Transporter-15任务发射入轨。该卫星基于Creotech Instruments公司Hypersat平台研制,由波兰军事技术学院工程师参与研发。作为光电小卫星,它将承担波罗的海监测、国境监控,以及军事、能源和交通基础设施的持续观测任务,强化波兰太空态势感知能力。

Basic Information
目录编号:
66758
目录名称:
PIAST-M
国际标识:
2025-276CW
轨道中心:
EARTH
卫星名称:
PIAST-M
卫星全名:
PIAST-M
卫星状态:
在轨 (已飞行281 天)
发射日期:
2025-11-28 UTC
国别 :
波兰 (PL)
星等 :
--
Orbit Information
数据来源 国际轨道数据
星历时间: 2026-09-05T11:39:49+0800
6小时前
查看轨道信息
半长轴: 6881.2km
偏心率: 0.000245
轨道倾角: 97.412°
近地点辐角 72.359°
升交点赤经 320.538°
平近点角 287.792°
近地点: 501.377km
远地点: 504.749km
周期: 94.680分钟
每日圈数: 15.209205
Detailed Information
使用方式:
暂无
2D Orbit Map
3D Orbit Map
Orbit Altitude Analysis Chart
Orbit Inclination Analysis Chart
Orbit Comprehensive Analysis Chart
View Comprehensive Chart
Conjunction Data List
Event ID Objects TCA Miss Dist (km) Collision Risk Probability Collision Risk Index (CRI) Action
CDM_260907-022505-614306-675821
PIAST-M (66758)
2026-09-07T
02:25:56+0000
2.981 km
极远距离
1.202034E-6 低风险 0.37
CDM_260907-163000-559906-675821
PIAST-M (66758)
2026-09-07T
16:30:15+0000
2.753 km
极远距离
9.194652E-7 极低风险 0.34